Regional Weather Roundup
Issued by NWS

Home | Current Version | Previous Version | Text Only | Print | Product List | Glossary On
Versions: 1 2 3 4 5 6 7 8 9 10 11 12 13 14 15 16 17 18 19 20 21 22 23 24 25 26 27
000
ASUS45 KBOU 200806
RWRCO

WEATHER ROUNDUP FOR COLORADO
NATIONAL WEATHER SERVICE DENVER/BOULDER CO
200 AM MDT SUN APR 20 2014

NOTE: "FAIR" INDICATES FEW OR NO CLOUDS BELOW 12000 FEET WITH NO
SIGNIFICANT WEATHER AND/OR OBSTRUCTIONS TO VISIBILITY.

COZ001>005-013-030-031-200900-
...NORTHWEST COLORADO...

CITY           SKY/WX    TMP DP  RH WIND       PRES   REMARKS
CRAIG          CLEAR     38  35  89 CALM      30.13S
HAYDEN         CLEAR     39  34  81 E6        30.16S
MEEKER         CLEAR     38  35  89 E7        30.14S
MOUNT WERNER   CLEAR     37  32  81 S6        30.28F
STEAMBOAT SPGS CLEAR     38  34  84 CALM      30.15S
WALDEN         CLEAR     32  30  93 SE7       30.18S WCI  26
$$

COZ006>008-011-200900-
...WEST CENTRAL VALLEYS...

CITY           SKY/WX    TMP DP  RH WIND       PRES   REMARKS
GRAND JUNCTION CLEAR     45  41  86 E5        30.08S
MONTROSE       PTCLDY    45  40  82 S5        30.13S
EAGLE          PTCLDY    45  41  87 CALM      30.16S
RIFLE          CLEAR     43  36  76 E3        30.11S
DELTA          PTCLDY    47  39  71 E5        30.11R
NUCLA            N/A     43  37  81 SE5       30.16S
$$

COZ017>023-064>068-200900-
...SOUTHWEST COLORADO...

CITY           SKY/WX    TMP DP  RH WIND       PRES   REMARKS
DURANGO        MOCLDY    38  32  79 NE5       30.12S
CORTEZ         CLEAR     39  33  79 E6        30.12R
PAGOSA SPRINGS MOCLDY    37  35  90 CALM      30.17S
TELLURIDE      NOT AVBL
WOLF CREEK PAS MOCLDY    30  28  93 SW9       30.31S WCI  22
$$

COZ009-010-012-014-032>034-037-058>063-200900-
...CENTRAL COLORADO...

CITY           SKY/WX    TMP DP  RH WIND       PRES   REMARKS
ASPEN          MOCLDY    40  33  76 S3        30.17F
BUENA VISTA    MOCLDY    43  39  86 CALM      30.19F
COPPER MTN     CLOUDY    34  30  86 W12       30.31F WCI  25
BERTHOUD PASS  HAZE      25  16  68 NW17      30.33F VSB 1/4 WCI  11
COTTONWOOD PAS CLOUDY    39  36  87 CALM      30.25F
GUNNISON       MOCLDY    37  28  70 NW6       30.21S
KREMMLING      PTCLDY    37  34  87 CALM      30.19S
LEADVILLE      CLOUDY    32  30  92 S5        30.24S WCI  27
MONARCH PASS   FOG       30  30 100 CALM      30.41S VSB<1/4
SALIDA         CLOUDY    46  43  90 W3        30.25S
SUNLIGHT       PTCLDY    36  34  93 CALM      30.29F
WILKERSON PASS FOG       32  32 100 SW5       30.31F VSB 1/4 WCI  27
$$

COZ069>075-200900-
...SAN LUIS VALLEY/SANGRE DE CRISTO MOUNTAINS...

CITY           SKY/WX    TMP DP  RH WIND       PRES   REMARKS
ALAMOSA        CLOUDY    46  37  71 E7        30.14R
LA VETA PASS   CLOUDY    34  32  93 SE7       30.24F FOG     WCI  28
SAGUACHE       CLOUDY    46  34  61 N8        30.17S
$$

COZ035-036-038>040-200900-
...NORTHERN COLORADO FRONT RANGE...

CITY           SKY/WX    TMP DP  RH WIND       PRES   REMARKS
DENVER INTL AP MOCLDY    50  43  77 SW8       30.07F
DMNS CITY PARK   N/A     53  42  65 SW9G15    30.06F
AURORA         MOCLDY    50  41  71 SW7       30.08F
FRONT RANGE AP NOT AVBL
ERIE MUNI ARPT PTCLDY    49  45  84 CALM      30.05F
BOULDER MUN AP PTCLDY    48  41  76 S3        30.04F
CENTENNIAL     CLOUDY    49  41  74 SW12      30.08F
BROOMFIELD     PTCLDY    50  43  76 S8        30.07F
FORT COLLINS   CLEAR     46  39  76 S8        30.06F
LONGMONT       CLEAR     45  43  92 CALM      30.06F
$$

COZ041-046-047-076>085-087-088-200900-
...PIKES PEAK/PALMER DIVIDE AND SOUTHERN FOOTHILLS...

CITY           SKY/WX    TMP DP  RH WIND       PRES   REMARKS
COLO. SPRINGS  MOCLDY    49  38  65 N9        30.10F
A. F. ACADEMY  MOCLDY    44  40  86 N8        30.11F
ELLICOTT       NOT AVBL
FALCON         MOCLDY    46  38  74 NW9       30.13F
FORT CARSON    MOCLDY    47  41  80 NW6       30.07F
LIMON          MOCLDY    41  37  86 NW6       30.07F
MONUMENT HILL  MOCLDY    39  37  93 W7        30.13F
TRINIDAD       CLOUDY    52  44  74 W8        30.07F
$$

COZ042>045-048>051-090-091-200900-
...NORTHEAST COLORADO...

CITY           SKY/WX    TMP DP  RH WIND       PRES   REMARKS
GREELEY ARPT   PTCLDY    48  39  71 S5        30.05F
AKRON          PTCLDY    45  38  76 SW7       30.04F
BURLINGTON     PTCLDY    46  42  86 NE9       30.01F
WRAY           CLEAR     44  41  89 NW6       30.02S
STERLING       PTCLDY    41  37  87 CALM      30.03S
HOLYOKE        CLEAR     43  37  81 NW7       30.03S
FORT MORGAN    CLOUDY    46  39  76 W5        30.04F
$$

COZ086-089-092>099-200900-
...SOUTHEAST COLORADO...

CITY           SKY/WX    TMP DP  RH WIND       PRES   REMARKS
PUEBLO         CLOUDY    56  42  59 NW9       30.03F
LA JUNTA       CLOUDY    56  45  66 N14       29.96F
LAMAR          CLOUDY    56  43  61 W5        29.92S
SPRINGFIELD      N/A     52  45  77 S14       29.99F
$$



USA.gov is the U.S. government's official web portal to all federal, state and local government web resources and services.